Weather in Baygulovo

Russia / Chuvash Republic     55°50′20″N   47°57′42″E
temp.,
°C
wind,
m/s
gust,
m/s
humid.,
%
clouds,
%
prec.,
mm/h
press.,
hPa
HPBL,
m
12 may, wed
wed1200:00+15ene228038 0.1 102617
03:00+13ne22885 0.1 102716
06:00+16e25777 0.0 1027160
09:00+20ese4655100 0.0 1027495
12:00+23ese4548100 0.0 10271188
15:00+24se564316 0.0 10262364
18:00+21ese236095 0.0 102558
21:00+17se2269100 0.0 102620
13 may, thu
thu1300:00+16se227130 0.0 102611
03:00+15se236858 0.0 102630
06:00+16ese386994 0.0 1026208
09:00+19ese585644 0.0 1025538
12:00+23se794412 0.0 10241225
15:00+20sse6964100 0.5 1024681
18:00+18ese51171100 0.2 1022351
21:00+16se41381100 0.3 1022307
14 may, fri
fri1400:00+14sse4117885 0.1 1021189
03:00+14sse49816 0.4 1022166
06:00+16sse377679 0.0 1022213
09:00+21sse455920 0.0 1022459
12:00+24s5755100 0.0 10211007
15:00+25s5856100 0.0 10201583
18:00+22sse4106889 0.1 1020248
21:00+17s37698 0.1 102098
15 may, sat
sat1500:00+16s41274100 0.0 1019205
03:00+15s41171100 0.0 1019177
06:00+17s4106950 0.0 1019222
09:00+22s685286 0.0 1019443
12:00+26s7104066 0.0 10181007
15:00+27ssw694235 0.0 10181349
18:00+23s410596 0.0 1017223
21:00+18s413645 0.0 1017193
16 may, sun
sun1600:00+16s4135842 0.0 1016211
03:00+15s4135874 0.0 1016197
06:00+18s5156364 0.0 1016308
09:00+23ssw6135175 0.0 1015692
12:00+26ssw7114478 0.0 10151446
15:00+26ssw61046100 0.0 10151676
18:00+23wsw496349 0.0 1015283
21:00+18wsw33813 0.0 101634